Current Version              Previous Version:    01  02  03  04  05  06  07  08  09  10  11  12  13  14  15  16  17  18  19  20  21  22  23  24  25  26  27  28  29  30  
   31  32  33  34  35  36  37  38  39  40  41  42  43  44  45  46  47  48  49  50  51  52  53  54  55  56  57  58  59  60  

[Printable]
831
ASUS44 KEWX 211902
RWRTX
SOUTH TEXAS REGIONAL WEATHER ROUNDUP
NATIONAL WEATHER SERVICE AUSTIN/SAN ANTONIO TX
200 PM CDT TUE OCT 21 2014

NOTE: "FAIR" INDICATED FEW OR NO CLOUDS BELOW 12,000 FEET WITH NO
SIGNIFICANT WEATHER AND/OR OBSTRUCTIONS TO VISIBILITY.

* - THESE STATIONS ARE NOT NWS OR FAA STATIONS...AND ARE NOT SUBJECT
    TO NWS AND FAA QUALITY CONTROL.

TXZ171-172-183>190-212000-
TEXAS HILL COUNTRY AND EDWARDS PLATEAU

CITY           SKY/WX    TMP DP  RH WIND       PRES   REMARKS
JUNCTION       MOSUNNY   78  55  44 VRB5      30.05F
*LLANO         MOSUNNY   81  59  47 NE3       30.08F
BURNET         MOSUNNY   79  55  43 VRB6      30.07F
*HORSESHOE BAY MOSUNNY   79  56  45 SE5       30.05F
*KERRVILLE     SUNNY     76  59  53 CALM      30.06F
*FREDERICKSBRG MOSUNNY   75  51  43 E5        30.07F
*ROCKSPRINGS   MOSUNNY   75  55  50 SE5       30.09F
*BOERNE STAGE  SUNNY     79  52  38 NE5       30.05F
*CASTROVILLE   SUNNY     82  51  34 E12       30.04F
HONDO          SUNNY     80  56  43 SE13G20   30.03F
*UVALDE        MOSUNNY   82  58  44 E9        30.02F
DEL RIO        CLOUDY    78  62  57 SE9       30.00F
LAUGHLIN AFB   NOT AVBL
CARRIZO SPRGS  PTSUNNY   81  61  50 SE6       29.99F
$$

TXZ173-191>194-202-209-217>225-228-212000-
CENTRAL AND SOUTH CENTRAL TEXAS

CITY           SKY/WX    TMP DP  RH WIND       PRES   REMARKS
GEORGETOWN     SUNNY     77  57  50 NE7       30.04F
AUSTIN/BERGSTM MOSUNNY   79  57  46 NE7       30.03F
AUSTIN/MABRY   SUNNY     79  56  45 SE7       30.05F
*AUSTIN/EXEC   SUNNY     79  54  41 E9        30.05F
*LAGO VISTA    SUNNY     78  55  44 E6        30.07F
SAN MARCOS     SUNNY     81  54  39 NE8G18    30.04F
NEW BRAUNFELS  SUNNY     84  56  38 E10       30.01F
RANDOLPH AFB   NOT AVBL
PT SAN ANTONIO NOT AVBL
SAN ANTONIO    MOSUNNY   81  54  39 E8        30.02F
STINSON FIELD  SUNNY     84  57  39 NE9       29.99F
*PLEASANTON    SUNNY     83  55  37 E8G16     30.01F
*LA GRANGE     SUNNY     81  53  37 E6        30.01F HAZE
*GIDDINGS      SUNNY     78  50  37 E6        30.08F
*GONZALES      SUNNY     82  55  40 NE6       30.02F
$$

TXZ163>164-176>182-195>201-210>213-226-227-235-212000-
SOUTHEAST TEXAS

CITY           SKY/WX    TMP DP  RH WIND       PRES   REMARKS
COLLEGE STN    SUNNY     79  54  41 E10       30.03F
*BRYAN         SUNNY     80  54  41 NE7       30.05F
*CALDWELL      SUNNY     79  48  34 E6        30.08F
*CROCKETT      SUNNY     82  63  51 NE6       30.08F
*BRENHAM       SUNNY     82  50  33 E5        30.04F
HUNTSVILLE     SUNNY     80  56  43 E6        30.04F
CONROE         SUNNY     79  53  40 NE7       30.03F
HOUSTON BUSH   SUNNY     80  54  40 NE6       30.02F
HOUSTON HOBBY  SUNNY     80  51  36 E12       30.01F
*HOUSTON SW AP SUNNY     75  49  39 E9        30.01F
PEARLAND       SUNNY     79  57  46 E12       30.03F
HOUSTON HOOKS  SUNNY     80  52  37 VRB7      30.03F
ELLINGTON FLD  SUNNY     77  54  44 NE10      30.03F
SUGAR LAND     SUNNY     81  52  36 E7        30.01F
*HOUSTON EXEC  SUNNY     81 N/A N/A E8        30.03F
*CLEVELAND MUN SUNNY     80  59  49 CALM      30.05F
*WHARTON       SUNNY     82  48  30 E12       30.02F
*COLUMBUS      FAIR      82  51  34 NE5       30.01F
$$

TXZ214>216-236>238-212000-
THE UPPER TEXAS COAST

CITY           SKY/WX    TMP DP  RH WIND       PRES   REMARKS
*ORANGE        SUNNY     79  53  41 NE9       30.04F
PORT ARTHUR    SUNNY     81  53  37 NE13      30.01F
GALVESTON      SUNNY     79  64  60 NE14G21   30.02F
ANGLETON       SUNNY     81  56  42 NE9       30.00F
*BAY CITY        N/A     83  59  43 E12       29.99F
PALACIOS       MOSUNNY   83  64  52 E8        29.98F
$$

TXZ229>234-239>247-212000-
TEXAS COASTAL BEND AND RIO GRANDE PLAINS

CITY           SKY/WX    TMP DP  RH WIND       PRES   REMARKS
VICTORIA       SUNNY     85  56  37 VRB3G17   29.99F
*BEEVILLE      MOSUNNY   87  60  40 E13G18    29.98F
ROCKPORT       SUNNY     81  69  67 E14       29.98F
*PORT ARANSAS  MOSUNNY   81  70  69 NE15G21   29.97F
*PORT LAVACA   SUNNY     82  63  53 NE8       29.99F
*INGLESIDE     PTSUNNY   83  69  62 E14G21    29.98F
CORPUS CHRISTI MOSUNNY   82  69  64 E13       29.97F
CORPUS NAS     MOSUNNY   83  72  69 NE16      29.96F
*ROBSTOWN      RAIN      83  70  65 E13       29.99S
ALICE          MOSUNNY   83  67  58 E14       29.97F
KINGSVILLE NAS PTSUNNY   83  70  64 E13       29.96F
COTULLA        MOSUNNY   86  57  37 NE9       29.99F
*FAITH RANCH   MOSUNNY   81  63  54 E8G17     30.01F
LAREDO         PTSUNNY   82  66  58 NE9       29.99F
$$

TXZ248>255-212000-
DEEP SOUTH TEXAS

CITY           SKY/WX    TMP DP  RH WIND       PRES   REMARKS
BROWNSVILLE    CLOUDY    84  71  65 E9G18     29.92S
PORT ISABEL    CLOUDY    81  75  82 E9        29.92F
*SOUTH PADRE   PTSUNNY   84  73  70 E13       29.92F HX  91
HARLINGEN      CLOUDY    83  71  67 NE22G28   29.93F
*HEBBRONVILLE  PTSUNNY   81  66  60 E13       29.98F
MCALLEN        RAIN      76  73  91 NE7       29.95F FOG
*WESLACO       CLOUDY    84  69  60 NE15G22   29.93F
FALFURRIAS     PTSUNNY   83  69  61 E13       29.95F
EDINBURG       RAIN      74  70  88 NE9       29.97S
*ZAPATA        CLOUDY    82  66  56 E9G17     29.95F
$$

TXZ213>215-236>238-242>244-246-247-251-254-255-212000-
CMAN STATIONS

STATION/POSITION TIME  TEMP    WIND        PRES    WAVE
                       AIR SEA DIR/SP/G            HT/PER
                 (UTC) (F)     (DEG/KT/KT) (MB)    (FT/S)
SABINE PASS      1800   76 74   40/  8/ 14 1016.8
SEA RIM ST PARK  1800   76     100/  8/ 13 1017.6
NORTH JETTY/GLS  1800   73 77   90/ 15/ 17   N/A
EAGLE POINT      1800   74 74  100/  9/ 11 1016.8
MORGANS POINT    1800   76      80/ 10/ 12 1016.7
MISSION/ARANSAS  1800           80/ 14     1017.0
PORT O`CONNOR    1800           50/ 14/ 15   N/A
PORT ARANSAS     1800   78 78   50/ 15/ 17 1016.1
MALAQUITE BEACH  1800   78 78   40/ 15/ 19 1014.4
BAFFIN BAY       1800   79 83   60/ 14/ 20 1014.7
$$

GMZ080-GMZ150>470-212000-
OFFSHORE BUOY REPORTS

STATION/POSITION TIME  TEMP    WIND        PRES    WAVE
                       AIR SEA DIR/SP/G            HT/PER
                 (UTC) (F)     (DEG/KT/KT) (MB)    (FT/S)
20 E GALVESTON   1900   74 78   60/ 16/ 17 1015.6    3/ 4
90 E PT ARANSAS  1900   78 82   60/ 16/ 19 1014.7    5/ 7
35 NE PT MANSFLD 1800   80 81   70/ 17/ 19 1013.8    6/ 7
200 E PT ISABEL  1800   81 81   70/ 17/ 21 1012.5    6/ 6
$$